TimeCDT,TemperatureF,Dew PointF,Humidity,Sea Level PressureIn,VisibilityMPH,Wind Direction,Wind SpeedMPH,Gust SpeedMPH,PrecipitationIn,Events,Conditions,WindDirDegrees,DateUTC
12:56 AM,71.1,66.9,87,29.73,10.0,Calm,Calm,-,N/A,,Scattered Clouds,0,2013-07-01 05:56:00
1:56 AM,72.0,66.9,84,29.73,10.0,Calm,Calm,-,N/A,,Clear,0,2013-07-01 06:56:00
2:56 AM,70.0,66.9,90,29.73,10.0,Calm,Calm,-,N/A,,Mostly Cloudy,0,2013-07-01 07:56:00
3:56 AM,73.0,68.0,84,29.73,10.0,ESE,3.5,-,N/A,,Scattered Clouds,110,2013-07-01 08:56:00
4:56 AM,73.9,69.1,85,29.75,10.0,Calm,Calm,-,N/A,,Mostly Cloudy,0,2013-07-01 09:56:00
5:56 AM,72.0,66.0,81,29.75,10.0,SE,9.2,-,0.00,,Mostly Cloudy,130,2013-07-01 10:56:00
6:56 AM,73.9,70.0,87,29.76,10.0,Calm,Calm,-,N/A,,Overcast,0,2013-07-01 11:56:00
7:56 AM,75.9,69.1,79,29.78,10.0,Calm,Calm,-,N/A,,Mostly Cloudy,0,2013-07-01 12:56:00
8:56 AM,81.0,72.0,74,29.78,10.0,NW,3.5,-,N/A,,Clear,310,2013-07-01 13:56:00
9:56 AM,84.0,72.0,67,29.79,10.0,Variable,4.6,-,N/A,,Clear,0,2013-07-01 14:56:00
10:56 AM,86.0,68.0,55,29.81,10.0,Variable,4.6,-,N/A,,Clear,0,2013-07-01 15:56:00
11:56 AM,87.1,66.9,51,29.80,10.0,Variable,5.8,-,N/A,,Scattered Clouds,0,2013-07-01 16:56:00
12:56 PM,88.0,64.9,46,29.79,10.0,NNW,5.8,-,N/A,,Partly Cloudy,330,2013-07-01 17:56:00
1:56 PM,87.1,64.9,48,29.77,10.0,NW,4.6,-,N/A,,Mostly Cloudy,310,2013-07-01 18:56:00
2:56 PM,89.1,64.9,45,29.77,10.0,NW,5.8,-,N/A,,Partly Cloudy,310,2013-07-01 19:56:00
3:56 PM,88.0,64.0,45,29.78,10.0,Calm,Calm,-,N/A,,Partly Cloudy,0,2013-07-01 20:56:00
4:56 PM,88.0,62.1,42,29.77,10.0,Calm,Calm,-,N/A,,Scattered Clouds,0,2013-07-01 21:56:00
5:56 PM,88.0,63.0,43,29.77,10.0,Calm,Calm,-,N/A,,Clear,0,2013-07-01 22:56:00
6:56 PM,84.9,64.9,51,29.80,10.0,Calm,Calm,-,N/A,,Partly Cloudy,0,2013-07-01 23:56:00
7:56 PM,81.0,66.0,60,29.82,10.0,South,3.5,-,N/A,,Clear,190,2013-07-02 00:56:00
8:56 PM,80.1,68.0,67,29.83,10.0,Calm,Calm,-,N/A,,Mostly Cloudy,0,2013-07-02 01:56:00
9:56 PM,79.0,68.0,69,29.85,10.0,Calm,Calm,-,N/A,,Clear,0,2013-07-02 02:56:00
10:56 PM,77.0,68.0,74,29.85,10.0,WNW,3.5,-,N/A,,Clear,300,2013-07-02 03:56:00
11:56 PM,73.9,68.0,82,29.86,10.0,Calm,Calm,-,N/A,,Clear,0,2013-07-02 04:56:00